When you browse on this site, cookies collect data to enhance your experience and personalize the content and advertising you see.
Visit our Privacy Policy to learn more. By continuing to use the site, you agree to this use of cookies and data.
  • In Romania
  • List of Countries
  • For 7 days
  • Water Temperature
  • Satellite Maps
  • Weather Map
  • Weather Widgets
  • user-avatar
    Login

    Hourly Weather Lago d'Arno

    Today, 18 July, Thursday

    Time Temperature Precipitation Wind Pressure Humidity
    00:00 +9°C° 0.2 mm 1 mps 605 mmHg 88%
    01:00 +9°C° 0 mm 1 mps 605 mmHg 88%
    02:00 +9°C° 0.2 mm 1 mps 605 mmHg 88%
    03:00 +8°C° 0.2 mm 1 mps 605 mmHg 88%
    04:00 +8°C° 0.2 mm 1 mps 605 mmHg 88%
    05:00 +9°C° 0.4 mm 1 mps 605 mmHg 87%
    06:00 +10°C° 0.4 mm 1 mps 606 mmHg 86%
    07:00 +10°C° 0 mm 0 mps 607 mmHg 83%
    08:00 +12°C° 0.9 mm 1 mps 607 mmHg 82%
    09:00 +13°C° 0.9 mm 1 mps 607 mmHg 80%
    10:00 +13°C° 0.9 mm 1 mps 608 mmHg 78%
    11:00 +14°C° 1.4 mm 1 mps 608 mmHg 78%
    12:00 +14°C° 1.4 mm 1 mps 608 mmHg 79%
    13:00 +14°C° 1.4 mm 1 mps 608 mmHg 79%
    14:00 +14°C° 1.3 mm 1 mps 608 mmHg 79%
    15:00 +14°C° 1.3 mm 1 mps 608 mmHg 80%
    16:00 +14°C° 1.3 mm 1 mps 608 mmHg 80%
    17:00 +13°C° 0.7 mm 1 mps 608 mmHg 82%
    18:00 +13°C° 0.7 mm 1 mps 608 mmHg 84%
    19:00 +11°C° 0.7 mm 0 mps 607 mmHg 87%
    20:00 +11°C° 0 mm 1 mps 607 mmHg 87%
    21:00 +10°C° 0 mm 1 mps 607 mmHg 87%
    22:00 +9°C° 0 mm 1 mps 607 mmHg 87%
    23:00 +8°C° 0 mm 1 mps 607 mmHg 87%

    Tomorrow, 19 July, Friday

    Time Temperature Precipitation Wind Pressure Humidity
    00:00 +8°C° 0 mm 1 mps 607 mmHg 87%
    01:00 +8°C° 0 mm 1 mps 607 mmHg 87%
    02:00 +8°C° 0 mm 1 mps 607 mmHg 87%
    03:00 +8°C° 0 mm 1 mps 607 mmHg 87%
    04:00 +8°C° 0 mm 1 mps 607 mmHg 87%
    05:00 +9°C° 0 mm 1 mps 608 mmHg 85%
    06:00 +10°C° 0 mm 1 mps 608 mmHg 83%
    07:00 +11°C° 0 mm 0 mps 609 mmHg 81%
    08:00 +13°C° 0 mm 1 mps 610 mmHg 74%
    09:00 +15°C° 0 mm 1 mps 610 mmHg 67%
    10:00 +16°C° 0 mm 1 mps 611 mmHg 60%
    11:00 +16°C° 0.4 mm 2 mps 611 mmHg 64%
    12:00 +16°C° 0.4 mm 2 mps 611 mmHg 68%
    13:00 +16°C° 0.4 mm 2 mps 611 mmHg 73%
    14:00 +16°C° 1.1 mm 2 mps 610 mmHg 77%
    15:00 +15°C° 1.1 mm 2 mps 610 mmHg 81%
    16:00 +15°C° 1.1 mm 2 mps 610 mmHg 85%
    17:00 +15°C° 0.5 mm 1 mps 610 mmHg 87%
    18:00 +14°C° 0.5 mm 1 mps 610 mmHg 90%
    19:00 +13°C° 0.5 mm 1 mps 610 mmHg 92%
    20:00 +12°C° 0.1 mm 1 mps 610 mmHg 93%
    21:00 +11°C° 0.1 mm 1 mps 609 mmHg 94%
    22:00 +10°C° 0.1 mm 1 mps 609 mmHg 95%
    23:00 +10°C° 0 mm 1 mps 609 mmHg 94%

    Day after tomorrow, 20 July, Saturday

    Time Temperature Precipitation Wind Pressure Humidity
    00:00 +10°C° 0 mm 1 mps 609 mmHg 94%
    01:00 +9°C° 0 mm 1 mps 609 mmHg 94%
    02:00 +9°C° 0 mm 1 mps 609 mmHg 94%
    03:00 +9°C° 0 mm 1 mps 609 mmHg 94%
    04:00 +9°C° 0 mm 1 mps 609 mmHg 94%
    05:00 +10°C° 0 mm 1 mps 609 mmHg 92%
    06:00 +10°C° 0 mm 0 mps 610 mmHg 91%
    07:00 +11°C° 0 mm 0 mps 611 mmHg 89%
    08:00 +14°C° 0 mm 1 mps 611 mmHg 82%
    09:00 +15°C° 0 mm 1 mps 612 mmHg 75%
    10:00 +18°C° 0 mm 1 mps 613 mmHg 69%
    11:00 +17°C° 0.3 mm 2 mps 613 mmHg 71%
    12:00 +17°C° 0.3 mm 2 mps 613 mmHg 73%
    13:00 +17°C° 0.3 mm 2 mps 613 mmHg 75%
    14:00 +17°C° 1 mm 2 mps 612 mmHg 79%
    15:00 +16°C° 1 mm 2 mps 612 mmHg 83%
    16:00 +16°C° 1 mm 2 mps 612 mmHg 86%
    17:00 +15°C° 0.5 mm 1 mps 612 mmHg 88%
    18:00 +15°C° 0.5 mm 1 mps 612 mmHg 90%
    19:00 +14°C° 0.5 mm 0 mps 612 mmHg 91%
    20:00 +12°C° 0.1 mm 0 mps 612 mmHg 92%
    21:00 +12°C° 0.1 mm 1 mps 612 mmHg 93%
    22:00 +11°C° 0.1 mm 1 mps 611 mmHg 94%
    23:00 +11°C° 0 mm 1 mps 611 mmHg 93%

    21 July, Sunday

    Time Temperature Precipitation Wind Pressure Humidity
    00:00 +11°C° 0 mm 1 mps 611 mmHg 93%
    01:00 +10°C° 0 mm 1 mps 611 mmHg 92%
    02:00 +10°C° 0 mm 1 mps 611 mmHg 92%
    03:00 +10°C° 0 mm 1 mps 611 mmHg 92%
    04:00 +10°C° 0 mm 1 mps 611 mmHg 91%
    05:00 +11°C° 0 mm 1 mps 612 mmHg 88%
    06:00 +12°C° 0 mm 0 mps 612 mmHg 86%
    07:00 +13°C° 0 mm 0 mps 613 mmHg 83%
    08:00 +16°C° 0 mm 1 mps 614 mmHg 75%
    09:00 +19°C° 0 mm 1 mps 615 mmHg 68%
    10:00 +21°C° 0 mm 1 mps 616 mmHg 61%
    11:00 +21°C° 0.2 mm 1 mps 616 mmHg 60%
    12:00 +20°C° 0.2 mm 2 mps 616 mmHg 60%
    13:00 +21°C° 0.2 mm 2 mps 616 mmHg 59%
    14:00 +20°C° 0.5 mm 2 mps 616 mmHg 64%
    15:00 +20°C° 0.5 mm 2 mps 615 mmHg 69%
    16:00 +20°C° 0.5 mm 2 mps 615 mmHg 73%
    17:00 +20°C° 0.8 mm 1 mps 615 mmHg 78%
    18:00 +19°C° 0.8 mm 1 mps 615 mmHg 84%
    19:00 +16°C° 0.8 mm 0 mps 614 mmHg 89%
    20:00 +15°C° 0.5 mm 0 mps 614 mmHg 89%
    21:00 +13°C° 0.5 mm 0 mps 614 mmHg 88%
    22:00 +12°C° 0.5 mm 0 mps 614 mmHg 88%
    23:00 +13°C° 0 mm 1 mps 614 mmHg 88%

    22 July, Monday

    Time Temperature Precipitation Wind Pressure Humidity
    00:00 +12°C° 0 mm 1 mps 614 mmHg 88%
    01:00 +12°C° 0 mm 1 mps 613 mmHg 88%
    02:00 +12°C° 0 mm 1 mps 613 mmHg 88%
    03:00 +12°C° 0 mm 1 mps 613 mmHg 87%
    04:00 +11°C° 0 mm 1 mps 613 mmHg 87%
    05:00 +13°C° 0 mm 1 mps 614 mmHg 84%
    06:00 +14°C° 0 mm 1 mps 615 mmHg 81%
    07:00 +16°C° 0 mm 1 mps 615 mmHg 77%
    08:00 +19°C° 0 mm 1 mps 616 mmHg 69%
    09:00 +20°C° 0 mm 1 mps 617 mmHg 61%
    10:00 +22°C° 0 mm 1 mps 617 mmHg 53%
    11:00 +23°C° 0.2 mm 1 mps 617 mmHg 54%
    12:00 +23°C° 0.2 mm 2 mps 617 mmHg 54%
    13:00 +23°C° 0.2 mm 2 mps 617 mmHg 55%
    14:00 +23°C° 0.5 mm 2 mps 617 mmHg 59%
    15:00 +21°C° 0.5 mm 2 mps 616 mmHg 64%
    16:00 +21°C° 0.5 mm 2 mps 616 mmHg 68%
    17:00 +21°C° 1.1 mm 1 mps 616 mmHg 75%
    18:00 +20°C° 1.1 mm 1 mps 615 mmHg 81%
    19:00 +16°C° 1.1 mm 0 mps 615 mmHg 87%
    20:00 +16°C° 0.1 mm 1 mps 614 mmHg 87%
    21:00 +15°C° 0.1 mm 1 mps 614 mmHg 87%
    22:00 +14°C° 0.1 mm 1 mps 614 mmHg 87%
    23:00 +13°C° 0 mm 1 mps 614 mmHg 87%

    23 July, Tuesday

    Time Temperature Precipitation Wind Pressure Humidity
    00:00 +13°C° 0 mm 1 mps 613 mmHg 86%
    01:00 +13°C° 0 mm 1 mps 613 mmHg 86%
    02:00 +13°C° 0 mm 1 mps 613 mmHg 86%
    03:00 +12°C° 0 mm 1 mps 613 mmHg 85%
    04:00 +12°C° 0 mm 1 mps 612 mmHg 85%
    05:00 +14°C° 0 mm 1 mps 613 mmHg 83%
    06:00 +15°C° 0 mm 1 mps 613 mmHg 80%
    07:00 +15°C° 0 mm 0 mps 614 mmHg 77%
    08:00 +19°C° 0 mm 1 mps 615 mmHg 71%
    09:00 +21°C° 0 mm 1 mps 615 mmHg 65%
    10:00 +22°C° 0 mm 1 mps 616 mmHg 58%
    11:00 +23°C° 0.1 mm 2 mps 616 mmHg 58%
    12:00 +23°C° 0.1 mm 2 mps 616 mmHg 57%
    13:00 +24°C° 0.1 mm 2 mps 616 mmHg 57%
    14:00 +23°C° 0.6 mm 2 mps 615 mmHg 63%
    15:00 +21°C° 0.6 mm 2 mps 614 mmHg 69%
    16:00 +21°C° 0.6 mm 2 mps 614 mmHg 75%
    17:00 +20°C° 0.9 mm 2 mps 613 mmHg 80%
    18:00 +20°C° 0.9 mm 1 mps 613 mmHg 84%
    19:00 +19°C° 0.9 mm 1 mps 613 mmHg 89%
    20:00 +18°C° 1.3 mm 1 mps 612 mmHg 89%
    21:00 +15°C° 1.3 mm 0 mps 612 mmHg 90%
    22:00 +13°C° 1.3 mm 0 mps 612 mmHg 91%
    23:00 +13°C° 0.3 mm 0 mps 611 mmHg 91%
    Show more